Regional Weather Roundup
Issued by NWS Sterling, VA

Home | Current Version | Previous Version | Graphics & Text | Print | Product List | Glossary On
Versions: 1 2 3 4 5 6 7 8 9 10 11 12 13 14 15 16 17 18 19 20 21 22 23 24 25 26 27 28 29 30 31 32 33 34 35 36 37 38 39 40 41 42 43 44 45 46 47 48 49 50
000
ASUS41 KLWX 180310
RWRLWX

REGIONAL WEATHER ROUNDUP
NATIONAL WEATHER SERVICE BALTIMORE MD/WASHINGTON DC
1100 PM EDT WED SEP 17 2014

Note: "FAIR" indicates few or no clouds below 12,000 feet
with no significant weather and/or obstructions to visibility.
 TC=TEMPERATURE CELSIUS

 * =Non NWS site. Station does not report precipitation (e.g. rain,
    snow, etc.), thunder, or fog.

DCZ001-MDZ009-015-VAZ040>042-051-053>054-180400-
WASHINGTON METRO

CITY           SKY/WX    TMP DP  RH WIND       PRES   REMARKS
WASHINGTON NAT PTCLDY    67  49  52 S3        29.99S
DULLES         MOCLDY    61  52  72 SE3       29.99R
ANDREWS AFB    CLEAR     56  52  88 CALM      29.98S
QUANTICO       CLEAR     62  58  86 NW5       29.99S
COLLEGE PARK*  CLEAR     57  55  94 CALM      29.98S
LEESBURG*      MOCLDY    59  57  94 CALM      30.00S
MANASSAS*      CLEAR     57  55  94 CALM      29.99
GAITHERSBURG*  CLEAR     55  52  88 CALM      30.03S

$$

MDZ006>007-011-014-180400-
BALTIMORE METRO

CITY           SKY/WX    TMP DP  RH WIND       PRES   REMARKS
BWI AIRPORT    PTCLDY    56  53  90 CALM      29.98S
MD SCIENCE CTR   N/A     66  49  54 MISG      29.99R
MARTIN STATE   CLEAR     57  55  94 CALM      30.00R
ANNAPOLIS      CLEAR     63  60  90 CALM      29.98S
FORT MEADE*    CLEAR     52  50  93 CALM      30.01S

$$

MDZ012-015-019>023-180400-
MARYLAND EASTERN SHORE

CITY           SKY/WX    TMP DP  RH WIND       PRES   REMARKS
OCEAN CITY     CLEAR     54  51  90 CALM      29.98S
SALISBURY      CLEAR     57  51  80 CALM      29.99R
BAY BRIDGE AP*   N/A     63  52  67 SE5       29.99R
CAMBRIDGE*     CLEAR     59  54  82 CALM      29.98S
EASTON*        CLEAR     61  54  78 CALM      30.02

$$

MDZ017>025-180400-
SOUTHERN MARYLAND

CITY           SKY/WX    TMP DP  RH WIND       PRES   REMARKS
PATUXENT RIVER PTCLDY    57  53  86 S5        29.97S
ST INIGOES     CLEAR     56  50  80 CALM      29.97S
LEONARDTOWN*   CLEAR     55  50  82 CALM      29.99S

$$

MDZ003>005-180400-
NORTH CENTRAL MARYLAND

CITY           SKY/WX    TMP DP  RH WIND       PRES   REMARKS
FREDERICK*     CLEAR     55  54  94 CALM      30.02S
HAGERSTOWN APT PTCLDY    58  49  72 CALM      29.99R
WESTMINSTER*   CLEAR     55  52  88 CALM      30.00S

$$

MDZ501>502-180400-
WESTERN MARYLAND

CITY           SKY/WX    TMP DP  RH WIND       PRES   REMARKS
OAKLAND*       PTCLDY    52  50  93 E3        30.03F
CUMBERLAND*    MOCLDY    59  52  77 N3        30.03S

$$

VAZ025>031-180400-
SHENANDOAH VALLEY

CITY           SKY/WX    TMP DP  RH WIND       PRES   REMARKS
WINCHESTER*    CLOUDY    61  54  77 CALM      29.99S
STAUNTON*      MOCLDY    57  52  81 CALM      30.00F

$$

WVZ021-048>050-054>055-180400-
EASTERN WEST VIRGINIA PANHANDLE

CITY           SKY/WX    TMP DP  RH WIND       PRES   REMARKS
MARTINSBURG    CLOUDY    59  51  75 CALM      29.99R
PETERSBURG*    PTCLDY    56  54  93 W3        30.00S

$$

VAZ036>039-050-180400-
CENTRAL FOOTHILLS

CITY           SKY/WX    TMP DP  RH WIND       PRES   REMARKS
CHARLOTTESVILL PTCLDY    59  55  87 N3        29.98S
ORANGE*        CLEAR     55  52  88 CALM      30.00S

$$

VAZ055>057-180400-
NORTH AND CENTRAL PIEDMONT

CITY           SKY/WX    TMP DP  RH WIND       PRES   REMARKS
FREDERICKSBRG* CLEAR     59  55  87 CALM      29.97F
STAFFORD*      CLEAR     54  54 100 CALM      30.02S

$$

NCZ024-NYZ072-PAZ021-071-VAZ022-071-180400-
OTHER REGIONAL OBSERVATIONS

CITY           SKY/WX    TMP DP  RH WIND       PRES   REMARKS
NEW YORK CITY  CLEAR     63  50  62 W3        30.01S
PHILADELPHIA   PTCLDY    62  53  72 S3        29.99S
ROANOKE        CLEAR     58  55  90 CALM      30.01S
RICHMOND       PTCLDY    65  58  78 CALM      29.98S
RALEIGH        MOCLDY    69  62  78 E6        29.97R

$$

ANZ530>537-180400-
MARINE OBSERVATIONS

STATION/POSITION TIME  TEMP    WIND        PRES
                       AIR SEA DIR/SP/G
                 (UTC) (F)     (DEG/KT/KT) (MB)
THOMAS PT LIGHT  0300   68 75  130/ 10/ 11 1016.1R
BALT KEY BRIDGE  0300   67     220/  3/  3 1015.1R
COVE POINT       0300   69     160/ 13/ 15 1014.9S
LEWISETTA        0300   67 74  180/  5/  6 1014.6F
SOLOMONS ISLAND  0300      77                N/A
PINEY POINT      0300          190/  5/  6   N/A

$$




USA.gov is the U.S. government's official web portal to all federal, state and local government web resources and services.